FW9446 Weather Reports


Display with metric or nautical units.
time (UTC)temp
F
wind
direction
speed
MPH
gust
MPH
rain 1hr
in
rain 24hr
in
rain mn
in
humidity
%
barometer
mb
20260505011101 62 0 0.0 0.0 0.00 0.00 0.00 68 1013.8
20260505010557 63 0 0.0 0.0 0.00 0.00 0.00 67 1013.8
20260505010103 63 0 0.0 0.0 0.00 0.00 0.00 66 1013.7
20260505005601 64 0 0.0 0.0 0.00 0.00 0.00 64 1013.6
20260505005058 64 0 0.0 0.0 0.00 0.00 0.00 63 1013.6
20260505004559 65 0 0.0 0.0 0.00 0.00 0.00 62 1013.5
20260505004100 66 0 0.0 0.0 0.00 0.00 0.00 61 1013.6
20260505003557 66 0 0.0 0.0 0.00 0.00 0.00 60 1013.5
20260505003101 67 0 0.0 0.0 0.00 0.00 0.00 59 1013.5
20260505002558 68 0 0.0 0.0 0.00 0.00 0.00 57 1013.6
20260505002058 69 0 0.0 0.0 0.00 0.00 0.00 57 1013.6
20260505001558 69 0 0.0 0.0 0.00 0.00 0.00 54 1013.5
20260505001056 70 0 0.0 0.0 0.00 0.00 0.00 52 1013.5
20260505000558 71 0 0.0 2.0 0.00 0.00 0.00 50 1013.5
20260505000059 71 0 0.0 4.0 0.00 0.00 0.00 49 1013.5
20260504235558 71 0 0.0 4.0 0.00 0.00 0.00 48 1013.5
20260504235058 72 0 0.0 7.0 0.00 0.00 0.00 47 1013.4
20260504234601 72 0 0.0 7.0 0.00 0.00 0.00 47 1013.4
20260504234057 72 239 0.0 7.0 0.00 0.00 0.00 45 1013.5
20260504233557 73 0 1.0 7.0 0.00 0.00 0.00 44 1013.4
20260504233100 73 0 0.0 6.0 0.00 0.00 0.00 45 1013.5
20260504232602 73 0 1.0 6.0 0.00 0.00 0.00 44 1013.5
20260504232059 73 291 0.0 4.0 0.00 0.00 0.00 47 1013.5
20260504231559 73 177 0.0 7.0 0.00 0.00 0.00 47 1013.7
20260504231057 74 296 1.0 9.0 0.00 0.00 0.00 47 1013.5
20260504230600 74 170 3.0 9.0 0.00 0.00 0.00 46 1013.5
20260504230106 74 0 1.0 8.0 0.00 0.00 0.00 46 1013.5
20260504225557 74 171 1.0 6.0 0.00 0.00 0.00 46 1013.6
20260504225056 74 0 1.0 10.0 0.00 0.00 0.00 45 1013.5
20260504224606 74 194 2.0 10.0 0.00 0.00 0.00 46 1013.5
20260504224100 75 214 1.0 8.0 0.00 0.00 0.00 44 1013.7
20260504223602 75 246 2.0 8.0 0.00 0.00 0.00 43 1013.5
20260504223125 75 201 1.0 8.0 0.00 0.00 0.00 45 1013.6
20260504222600 75 153 0.0 8.0 0.00 0.00 0.00 45 1013.6
20260504222058 75 242 2.0 9.0 0.00 0.00 0.00 47 1013.6
20260504221605 75 268 2.0 9.0 0.00 0.00 0.00 46 1013.7
20260504221057 76 254 1.0 9.0 0.00 0.00 0.00 47 1013.7
20260504220557 76 269 2.0 8.0 0.00 0.00 0.00 47 1013.5
20260504215558 76 318 1.0 8.0 0.00 0.00 0.00 47 1013.4
20260504215058 76 289 1.0 8.0 0.00 0.00 0.00 47 1013.3
20260504214558 77 238 1.0 6.0 0.00 0.00 0.00 48 1013.4
20260504214100 77 250 1.0 8.0 0.00 0.00 0.00 47 1013.3
20260504213558 77 319 1.0 8.0 0.00 0.00 0.00 49 1013.3
20260504213106 77 0 1.0 8.0 0.00 0.00 0.00 51 1013.4
20260504212558 77 242 1.0 4.0 0.00 0.00 0.00 50 1013.3
20260504212058 77 0 0.0 6.0 0.00 0.00 0.00 52 1013.4
20260504211651 77 159 1.0 6.0 0.00 0.00 0.00 49 1013.4
20260504211102 77 274 1.0 5.0 0.00 0.00 0.00 50 1013.4
20260504210601 77 345 0.0 5.0 0.00 0.00 0.00 51 1013.5
20260504210058 77 246 1.0 5.0 0.00 0.00 0.00 48 1013.6
20260504205601 78 0 1.0 6.0 0.00 0.00 0.00 50 1013.5
20260504205058 78 294 0.0 6.0 0.00 0.00 0.00 49 1013.6
20260504204604 78 0 1.0 6.0 0.00 0.00 0.00 48 1013.6
20260504204057 78 165 1.0 4.0 0.00 0.00 0.00 50 1013.7
20260504203557 78 0 1.0 7.0 0.00 0.00 0.00 50 1013.7
20260504203108 78 240 2.0 7.0 0.00 0.00 0.00 49 1013.8
20260504202557 78 0 2.0 7.0 0.00 0.00 0.00 50 1013.8
20260504202057 78 243 1.0 8.0 0.00 0.00 0.00 49 1013.9
20260504201613 78 118 1.0 8.0 0.00 0.00 0.00 50 1014.0
20260504201059 78 118 1.0 5.0 0.00 0.00 0.00 52 1013.9
20260504200557 78 338 2.0 5.0 0.00 0.00 0.00 50 1014.0
20260504200057 78 312 0.0 7.0 0.00 0.00 0.00 51 1014.0
20260504195558 77 141 2.0 7.0 0.00 0.00 0.00 49 1014.1
20260504195058 78 239 0.0 7.0 0.00 0.00 0.00 48 1014.2
20260504194559 78 240 3.0 7.0 0.00 0.00 0.00 50 1014.3
20260504194058 78 227 0.0 7.0 0.00 0.00 0.00 49 1014.4
20260504193557 77 347 2.0 7.0 0.00 0.00 0.00 48 1014.5
20260504193109 77 232 0.0 8.0 0.00 0.00 0.00 49 1014.4
20260504192557 77 0 0.0 8.0 0.00 0.00 0.00 49 1014.6
20260504192057 77 0 1.0 8.0 0.00 0.00 0.00 49 1014.5
20260504191612 76 0 0.0 5.0 0.00 0.00 0.00 50 1014.8
20260504191057 76 0 1.0 6.0 0.00 0.00 0.00 49 1014.9
20260504190557 76 155 1.0 6.0 0.00 0.00 0.00 48 1014.8
20260504190109 76 150 1.0 6.0 0.00 0.00 0.00 49 1014.9
20260504185557 76 69 0.0 4.0 0.00 0.00 0.00 51 1015.1
20260504185100 76 258 0.0 7.0 0.00 0.00 0.00 52 1015.1
20260504184600 76 144 1.0 8.0 0.00 0.00 0.00 50 1015.2
20260504184057 76 0 1.0 8.0 0.00 0.00 0.00 50 1015.1
20260504183600 76 237 0.0 4.0 0.00 0.00 0.00 54 1015.2
20260504183058 76 305 1.0 4.0 0.00 0.00 0.00 55 1015.2
20260504182556 76 0 0.0 5.0 0.00 0.00 0.00 55 1015.2
20260504182057 76 202 1.0 5.0 0.00 0.00 0.00 49 1015.3
20260504181602 76 118 0.0 9.0 0.00 0.00 0.00 51 1015.4
20260504181058 76 219 2.0 9.0 0.00 0.00 0.00 51 1015.4
20260504180557 76 0 2.0 7.0 0.00 0.00 0.00 53 1015.4
20260504180058 77 150 1.0 8.0 0.00 0.00 0.00 51 1015.5
20260504175559 76 306 0.0 8.0 0.00 0.00 0.00 52 1015.5
20260504175057 76 0 1.0 8.0 0.00 0.00 0.00 51 1015.6
20260504174604 75 0 0.0 8.0 0.00 0.00 0.00 50 1015.6
20260504174057 75 307 1.0 8.0 0.00 0.00 0.00 50 1015.7
20260504173600 75 339 1.0 4.0 0.00 0.00 0.00 52 1015.7
20260504173058 75 90 1.0 5.0 0.00 0.00 0.00 50 1015.8
20260504172558 75 195 1.0 6.0 0.00 0.00 0.00 51 1016.0
20260504172058 75 0 1.0 7.0 0.00 0.00 0.00 53 1016.0
20260504171557 74 234 3.0 7.0 0.00 0.00 0.00 53 1016.1
20260504171058 74 0 0.0 6.0 0.00 0.00 0.00 52 1016.0
20260504170558 74 0 0.0 8.0 0.00 0.00 0.00 55 1016.3
20260504151101 67 199 0.0 4.0 0.00 0.00 0.00 58 1017.7
20260504150557 67 0 0.0 6.0 0.00 0.00 0.00 61 1017.8
20260504141059 60 0 0.0 1.0 0.00 0.00 0.00 71 1018.3
20260504140557 58 0 0.0 2.0 0.00 0.00 0.00 75 1018.3
20260504130557 46 0 0.0 0.0 0.00 0.00 0.00 98 1018.5
20260504130108 46 0 0.0 0.0 0.00 0.00 0.00 98 1018.5
20260504120104 41 0 0.0 0.0 0.00 0.00 0.00 96 1018.3
20260504110559 40 0 0.0 0.0 0.00 0.00 0.00 95 1017.9
20260504100556 41 0 0.0 0.0 0.00 0.00 0.00 95 1017.9
20260504081558 42 0 0.0 0.0 0.00 0.00 0.00 93 1017.6
20260504081058 42 0 0.0 0.0 0.00 0.00 0.00 93 1017.4
20260504080558 42 0 0.0 0.0 0.00 0.00 0.00 93 1017.4
20260504070111 43 0 0.0 0.0 0.00 0.00 0.00 91 1017.6
20260504060104 45 0 0.0 0.0 0.00 0.00 0.00 89 1018.4
20260504050558 47 0 0.0 0.0 0.00 0.00 0.00 87 1018.5
20260504050104 47 0 0.0 0.0 0.00 0.00 0.00 86 1018.5
20260504045559 47 0 0.0 0.0 0.00 0.00 0.00 86 1018.6
20260504045059 47 0 0.0 0.0 0.00 0.00 0.00 86 1018.5
20260504044603 48 0 0.0 0.0 0.00 0.00 0.00 85 1018.4
20260504044059 48 0 0.0 0.0 0.00 0.00 0.00 85 1018.4
20260504043634 48 0 0.0 0.0 0.00 0.00 0.00 84 1018.5
20260504043104 48 0 0.0 0.0 0.00 0.00 0.00 84 1018.6
20260504042558 49 0 0.0 0.0 0.00 0.00 0.00 83 1018.6
20260504042056 49 0 0.0 0.0 0.00 0.00 0.00 82 1018.6
20260504041602 49 0 0.0 0.0 0.00 0.00 0.00 83 1018.6
20260504041058 49 0 0.0 0.0 0.00 0.00 0.00 83 1018.5
20260504040558 50 0 0.0 0.0 0.00 0.00 0.00 83 1018.5
20260504040137 50 0 0.0 0.0 0.00 0.00 0.00 82 1018.5
20260504035558 50 0 0.0 0.0 0.00 0.00 0.00 82 1018.5
20260504035100 50 0 0.0 0.0 0.00 0.00 0.00 82 1018.5
20260504034602 50 0 0.0 0.0 0.00 0.00 0.00 83 1018.4
20260504034058 50 0 0.0 0.0 0.00 0.00 0.00 83 1018.4
20260504033558 50 0 0.0 0.0 0.00 0.00 0.00 83 1018.4
20260504033056 50 0 0.0 0.0 0.00 0.00 0.00 83 1018.5
20260504032558 50 0 0.0 1.0 0.00 0.00 0.00 83 1018.5
20260504032102 50 0 0.0 1.0 0.00 0.00 0.00 83 1018.4
20260504031614 50 0 0.0 1.0 0.00 0.00 0.00 84 1018.4
20260504031057 50 0 0.0 0.0 0.00 0.00 0.00 83 1018.4
20260504030557 50 0 0.0 0.0 0.00 0.00 0.00 83 1018.3
20260504030057 51 0 0.0 0.0 0.00 0.00 0.00 83 1018.1
20260504025600 51 0 0.0 0.0 0.00 0.00 0.00 83 1018.1
20260504025059 51 0 0.0 0.0 0.00 0.00 0.00 83 1018.0
20260504024602 51 0 0.0 0.0 0.00 0.00 0.00 83 1018.1
20260504024058 51 0 0.0 0.0 0.00 0.00 0.00 83 1018.1
20260504023558 51 0 0.0 0.0 0.00 0.00 0.00 82 1018.2
20260504023056 51 0 0.0 0.0 0.00 0.00 0.00 83 1018.2
20260504022558 51 0 0.0 0.0 0.00 0.00 0.00 82 1018.2
20260504022058 51 0 0.0 0.0 0.00 0.00 0.00 82 1018.1
20260504021558 51 0 0.0 0.0 0.00 0.00 0.00 81 1018.1
20260504021058 52 0 0.0 0.0 0.00 0.00 0.00 81 1018.2
20260504020600 52 0 0.0 0.0 0.00 0.00 0.00 81 1017.9
20260504020110 52 0 0.0 0.0 0.00 0.00 0.00 80 1018.0
20260504015559 52 0 0.0 0.0 0.00 0.00 0.00 80 1017.8
20260504015058 52 0 0.0 0.0 0.00 0.00 0.00 79 1017.9
20260504014557 52 0 0.0 0.0 0.00 0.00 0.00 79 1017.7
20260504014058 53 0 0.0 0.0 0.00 0.00 0.00 79 1017.8
20260504013558 53 0 0.0 0.0 0.00 0.00 0.00 78 1017.7
20260504013058 53 0 0.0 0.0 0.00 0.00 0.00 77 1017.6
20260504012601 54 0 0.0 0.0 0.00 0.00 0.00 78 1017.5
20260504012059 54 0 0.0 0.0 0.00 0.00 0.00 77 1017.5
20260504011556 54 0 0.0 0.0 0.00 0.00 0.00 76 1017.5